Location: *
(55.6049°S, 142.1985°W)
Time: 14:00:34
(UTC+00:00)

CZ-2C R/B - Pass Details

Date: 12 May 2021
Orbit: 704 x 907 km, 98.0° (Epoch: 17 June)

Event Time Altitude Azimuth Distance (km) Brightness Sun altitude
Rises 15:47:14 0° 357° (N) 3,439 6.5 -12.0°
Reaches altitude 10° 15:49:46 10° 350° (N) 2,481 5.7 -11.6°
Maximum altitude 15:55:02 44° 278° (W) 1,127 3.5 -10.9°
Drops below altitude 10° 16:00:05 10° 205° (SSW) 2,380 5.2 -10.2°
Sets 16:02:28 0° 198° (SSW) 3,284 5.9 -9.9°
